Time,TemperatureF,DewpointF,PressureIn,WindDirection,WindDirectionDegrees,WindSpeedMPH,WindSpeedGustMPH,Humidity,HourlyPrecipIn,Conditions,Clouds,dailyrainin,SolarRadiationWatts/m^2,SoftwareType,DateUTC
2013-06-15 00:01:00,41.0,9.0,-100.00,NNE,16,0.0,2.0,26,0.00,,,0.00,0.000000,,2013-06-15 07:01:00,
2013-06-15 00:11:00,41.0,9.0,-100.00,NNE,16,0.0,2.0,26,0.00,,,0.00,0.000000,,2013-06-15 07:11:00,
2013-06-15 00:43:00,41.0,6.0,-100.00,WSW,240,0.0,2.0,23,0.00,,,0.00,0.000000,,2013-06-15 07:43:00,
2013-06-15 00:53:00,41.0,6.0,-100.00,WSW,240,0.0,2.0,23,0.00,,,0.00,0.000000,,2013-06-15 07:53:00,
2013-06-15 01:02:00,41.0,6.0,-100.00,WSW,240,0.0,2.0,23,0.00,,,0.00,0.000000,,2013-06-15 08:02:00,
2013-06-15 01:11:00,41.0,6.0,-100.00,WSW,240,0.0,2.0,23,0.00,,,0.00,0.000000,,2013-06-15 08:11:00,
2013-06-15 01:12:00,43.0,4.0,-100.00,East,94,0.0,2.0,19,0.00,,,0.00,0.000000,,2013-06-15 08:12:00,
2013-06-15 01:43:00,43.0,4.0,-100.00,East,94,0.0,2.0,19,0.00,,,0.00,0.000000,,2013-06-15 08:43:00,
2013-06-15 01:53:00,43.0,4.0,-100.00,East,94,0.0,2.0,19,0.00,,,0.00,0.000000,,2013-06-15 08:53:00,
2013-06-15 02:02:00,43.0,4.0,-100.00,East,94,0.0,2.0,19,0.00,,,0.00,0.000000,,2013-06-15 09:02:00,
2013-06-15 02:43:00,42.0,5.0,-100.00,NNE,27,0.0,2.0,21,0.00,,,0.00,0.000000,,2013-06-15 09:43:00,
2013-06-15 02:52:00,42.0,5.0,-100.00,NNE,27,0.0,2.0,21,0.00,,,0.00,0.000000,,2013-06-15 09:52:00,
2013-06-15 03:02:00,42.0,5.0,-100.00,NNE,27,0.0,2.0,21,0.00,,,0.00,0.000000,,2013-06-15 10:02:00,
2013-06-15 03:11:00,42.0,5.0,-100.00,NNE,27,0.0,2.0,21,0.00,,,0.00,0.000000,,2013-06-15 10:11:00,
2013-06-15 03:44:00,40.0,4.0,-100.00,West,267,0.0,2.0,22,0.00,,,-99.99,0.000000,,2013-06-15 10:44:00,
2013-06-15 03:53:00,40.0,4.0,-100.00,West,267,0.0,2.0,22,0.00,,,-99.99,0.000000,,2013-06-15 10:53:00,
2013-06-15 04:01:00,40.0,4.0,-100.00,West,267,0.0,2.0,22,0.00,,,-99.99,0.000000,,2013-06-15 11:01:00,
2013-06-15 04:11:00,40.0,4.0,-100.00,West,267,0.0,2.0,22,0.00,,,-99.99,0.000000,,2013-06-15 11:11:00,
2013-06-15 04:33:00,40.0,4.0,-100.00,West,276,0.0,2.0,22,0.00,,,-99.99,0.000000,,2013-06-15 11:33:00,
2013-06-15 04:43:00,40.0,4.0,-100.00,West,276,0.0,2.0,22,0.00,,,-99.99,0.000000,,2013-06-15 11:43:00,
2013-06-15 04:53:00,40.0,4.0,-100.00,West,276,0.0,2.0,22,0.00,,,-99.99,0.000000,,2013-06-15 11:53:00,
2013-06-15 05:01:00,40.0,4.0,-100.00,West,276,0.0,2.0,22,0.00,,,-99.99,0.000000,,2013-06-15 12:01:00,
2013-06-15 05:11:00,40.0,4.0,-100.00,West,276,0.0,2.0,22,0.00,,,-99.99,0.000000,,2013-06-15 12:11:00,
2013-06-15 05:33:00,41.0,6.0,-100.00,WNW,287,0.0,3.0,23,0.00,,,0.00,1.000000,,2013-06-15 12:33:00,
2013-06-15 05:43:00,41.0,6.0,-100.00,WNW,287,0.0,3.0,23,0.00,,,0.00,1.000000,,2013-06-15 12:43:00,
2013-06-15 05:52:00,41.0,6.0,-100.00,WNW,287,0.0,3.0,23,0.00,,,0.00,1.000000,,2013-06-15 12:52:00,
2013-06-15 06:02:00,41.0,6.0,-100.00,WNW,287,0.0,3.0,23,0.00,,,0.00,1.000000,,2013-06-15 13:02:00,
2013-06-15 06:11:00,41.0,6.0,-100.00,WNW,287,0.0,3.0,23,0.00,,,0.00,1.000000,,2013-06-15 13:11:00,
2013-06-15 06:53:00,48.0,8.0,-100.00,NNE,26,0.0,3.0,19,0.00,,,0.00,101.000000,,2013-06-15 13:53:00,
2013-06-15 07:34:00,54.0,14.0,-100.00,East,97,0.0,2.0,20,-99.99,,,0.00,348.000000,,2013-06-15 14:34:00,
2013-06-15 09:01:00,56.0,18.0,-100.00,East,98,0.0,5.0,22,-99.99,,,0.00,520.000000,,2013-06-15 16:01:00,
2013-06-15 09:11:00,56.0,18.0,-100.00,East,98,0.0,5.0,22,-99.99,,,0.00,520.000000,,2013-06-15 16:11:00,
2013-06-15 09:43:00,60.0,21.0,-100.00,ESE,105,0.0,6.0,22,0.00,,,0.00,675.000000,,2013-06-15 16:43:00,
2013-06-15 09:53:00,60.0,21.0,-100.00,ESE,105,0.0,6.0,22,0.00,,,0.00,675.000000,,2013-06-15 16:53:00,
2013-06-15 10:01:00,60.0,21.0,-100.00,ESE,105,0.0,6.0,22,0.00,,,0.00,675.000000,,2013-06-15 17:01:00,
2013-06-15 10:11:00,60.0,21.0,-100.00,ESE,105,0.0,6.0,22,0.00,,,0.00,675.000000,,2013-06-15 17:11:00,
2013-06-15 10:43:00,63.0,19.0,-100.00,ENE,75,0.0,0.0,18,0.00,,,0.00,880.000000,,2013-06-15 17:43:00,
2013-06-15 10:52:00,63.0,19.0,-100.00,ENE,75,0.0,0.0,18,0.00,,,0.00,880.000000,,2013-06-15 17:52:00,
2013-06-15 11:01:00,63.0,19.0,-100.00,ENE,75,0.0,0.0,18,0.00,,,0.00,880.000000,,2013-06-15 18:01:00,
2013-06-15 11:11:00,63.0,19.0,-100.00,ENE,75,0.0,0.0,18,0.00,,,0.00,880.000000,,2013-06-15 18:11:00,
2013-06-15 11:33:00,65.0,19.0,-100.00,ENE,60,0.0,11.0,17,0.00,,,0.00,934.000000,,2013-06-15 18:33:00,
2013-06-15 11:43:00,65.0,19.0,-100.00,ENE,60,0.0,11.0,17,0.00,,,0.00,934.000000,,2013-06-15 18:43:00,
2013-06-15 11:53:00,65.0,19.0,-100.00,ENE,60,0.0,11.0,17,0.00,,,0.00,934.000000,,2013-06-15 18:53:00,
2013-06-15 12:01:00,65.0,19.0,-100.00,ENE,60,0.0,11.0,17,0.00,,,0.00,934.000000,,2013-06-15 19:01:00,
2013-06-15 12:11:00,65.0,19.0,-100.00,ENE,60,0.0,11.0,17,0.00,,,0.00,934.000000,,2013-06-15 19:11:00,
2013-06-15 12:33:00,68.0,9.0,-100.00,SW,217,5.0,12.0,10,0.00,,,0.00,1004.000000,,2013-06-15 19:33:00,
2013-06-15 12:43:00,68.0,9.0,-100.00,SW,217,5.0,12.0,10,0.00,,,0.00,1004.000000,,2013-06-15 19:43:00,
2013-06-15 12:53:00,68.0,9.0,-100.00,SW,217,5.0,12.0,10,0.00,,,0.00,1004.000000,,2013-06-15 19:53:00,
2013-06-15 13:02:00,68.0,9.0,-100.00,SW,217,5.0,12.0,10,0.00,,,0.00,1004.000000,,2013-06-15 20:02:00,
2013-06-15 13:11:00,68.0,9.0,-100.00,SW,217,5.0,12.0,10,0.00,,,0.00,1004.000000,,2013-06-15 20:11:00,
2013-06-15 13:43:00,70.0,17.0,-100.00,ESE,118,0.0,14.0,13,0.00,,,0.00,985.000000,,2013-06-15 20:43:00,
2013-06-15 13:53:00,70.0,17.0,-100.00,ESE,118,0.0,14.0,13,0.00,,,0.00,985.000000,,2013-06-15 20:53:00,
2013-06-15 14:01:00,70.0,17.0,-100.00,ESE,118,0.0,14.0,13,0.00,,,0.00,985.000000,,2013-06-15 21:01:00,
2013-06-15 14:11:00,70.0,17.0,-100.00,ESE,118,0.0,14.0,13,0.00,,,0.00,985.000000,,2013-06-15 21:11:00,
2013-06-15 14:42:00,66.0,3.0,-100.00,SSE,153,5.0,16.0,8,0.00,,,0.00,674.000000,,2013-06-15 21:42:00,
2013-06-15 14:53:00,66.0,3.0,-100.00,SSE,153,5.0,16.0,8,0.00,,,0.00,674.000000,,2013-06-15 21:53:00,
2013-06-15 15:33:00,67.0,6.0,-100.00,SSE,163,0.0,12.0,9,0.00,,,0.00,475.000000,,2013-06-15 22:33:00,
2013-06-15 15:43:00,67.0,6.0,-100.00,SSE,163,0.0,12.0,9,0.00,,,0.00,475.000000,,2013-06-15 22:43:00,
2013-06-15 15:53:00,67.0,6.0,-100.00,SSE,163,0.0,12.0,9,0.00,,,0.00,475.000000,,2013-06-15 22:53:00,
2013-06-15 16:01:00,67.0,6.0,-100.00,SSE,163,0.0,12.0,9,0.00,,,0.00,475.000000,,2013-06-15 23:01:00,
2013-06-15 16:11:00,67.0,6.0,-100.00,SSE,163,0.0,12.0,9,0.00,,,0.00,475.000000,,2013-06-15 23:11:00,
2013-06-15 16:43:00,70.0,9.0,-100.00,SW,222,0.0,0.0,9,0.00,,,0.00,677.000000,,2013-06-15 23:43:00,
2013-06-15 16:53:00,70.0,9.0,-100.00,SW,222,0.0,0.0,9,0.00,,,0.00,677.000000,,2013-06-15 23:53:00,
2013-06-15 17:01:00,70.0,9.0,-100.00,SW,222,0.0,0.0,9,0.00,,,0.00,677.000000,,2013-06-16 00:01:00,
2013-06-15 17:11:00,70.0,9.0,-100.00,SW,222,0.0,0.0,9,0.00,,,0.00,677.000000,,2013-06-16 00:11:00,
2013-06-15 17:34:00,69.0,5.0,-100.00,SSW,203,0.0,0.0,8,0.00,,,-99.99,515.000000,,2013-06-16 00:34:00,
2013-06-15 17:43:00,69.0,5.0,-100.00,SSW,203,0.0,0.0,8,0.00,,,-99.99,515.000000,,2013-06-16 00:43:00,
2013-06-15 17:52:00,69.0,5.0,-100.00,SSW,203,0.0,0.0,8,0.00,,,-99.99,515.000000,,2013-06-16 00:52:00,
2013-06-15 18:01:00,69.0,5.0,-100.00,SSW,203,0.0,0.0,8,0.00,,,-99.99,515.000000,,2013-06-16 01:01:00,
2013-06-15 18:11:00,69.0,5.0,-100.00,SSW,203,0.0,0.0,8,0.00,,,-99.99,515.000000,,2013-06-16 01:11:00,
2013-06-15 18:43:00,67.0,4.0,-100.00,SSW,206,0.0,0.0,8,0.00,,,0.00,295.000000,,2013-06-16 01:43:00,
2013-06-15 18:53:00,67.0,4.0,-100.00,SSW,206,0.0,0.0,8,0.00,,,0.00,295.000000,,2013-06-16 01:53:00,
2013-06-15 19:01:00,67.0,4.0,-100.00,SSW,206,0.0,0.0,8,0.00,,,0.00,295.000000,,2013-06-16 02:01:00,
2013-06-15 19:11:00,67.0,4.0,-100.00,SSW,206,0.0,0.0,8,0.00,,,0.00,295.000000,,2013-06-16 02:11:00,
2013-06-15 19:33:00,61.0,6.0,-100.00,WSW,256,0.0,0.0,11,0.00,,,0.00,75.000000,,2013-06-16 02:33:00,
2013-06-15 19:43:00,61.0,6.0,-100.00,WSW,256,0.0,0.0,11,0.00,,,0.00,75.000000,,2013-06-16 02:43:00,
2013-06-15 19:53:00,61.0,6.0,-100.00,WSW,256,0.0,0.0,11,0.00,,,0.00,75.000000,,2013-06-16 02:53:00,
2013-06-15 20:01:00,61.0,6.0,-100.00,WSW,256,0.0,0.0,11,0.00,,,0.00,75.000000,,2013-06-16 03:01:00,
2013-06-15 20:11:00,61.0,6.0,-100.00,WSW,256,0.0,0.0,11,0.00,,,0.00,75.000000,,2013-06-16 03:11:00,
2013-06-15 20:12:00,59.0,3.0,-100.00,WSW,240,4.0,7.0,10,0.00,,,0.00,13.000000,,2013-06-16 03:12:00,
2013-06-15 20:43:00,59.0,3.0,-100.00,WSW,240,4.0,7.0,10,0.00,,,0.00,13.000000,,2013-06-16 03:43:00,
2013-06-15 20:53:00,59.0,3.0,-100.00,WSW,240,4.0,7.0,10,0.00,,,0.00,13.000000,,2013-06-16 03:53:00,
2013-06-15 21:01:00,59.0,3.0,-100.00,WSW,240,4.0,7.0,10,0.00,,,0.00,13.000000,,2013-06-16 04:01:00,
2013-06-15 21:34:00,57.0,-4.0,-100.00,WSW,240,3.0,7.0,8,0.00,,,0.00,0.000000,,2013-06-16 04:34:00,
2013-06-15 21:43:00,57.0,-4.0,-100.00,WSW,240,3.0,7.0,8,0.00,,,0.00,0.000000,,2013-06-16 04:43:00,
2013-06-15 21:53:00,57.0,-4.0,-100.00,WSW,240,3.0,7.0,8,0.00,,,0.00,0.000000,,2013-06-16 04:53:00,
2013-06-15 22:01:00,57.0,-4.0,-100.00,WSW,240,3.0,7.0,8,0.00,,,0.00,0.000000,,2013-06-16 05:01:00,
2013-06-15 22:11:00,57.0,-4.0,-100.00,WSW,240,3.0,7.0,8,0.00,,,0.00,0.000000,,2013-06-16 05:11:00,
2013-06-15 22:43:00,56.0,-10.0,-100.00,SW,228,4.0,7.0,6,0.00,,,0.00,0.000000,,2013-06-16 05:43:00,
2013-06-15 22:52:00,56.0,-10.0,-100.00,SW,228,4.0,7.0,6,0.00,,,0.00,0.000000,,2013-06-16 05:52:00,
2013-06-15 23:33:00,59.0,-16.0,-100.00,WSW,244,7.0,10.0,4,0.00,,,0.00,0.000000,,2013-06-16 06:33:00,